NOAA 16 DEB, 41660

Orbit data source: Space-Track

NOAA 16 DEB, 41660 is space debris in SSO originally from a launch on Thu, 21 Sep 2000 UTC launched from the Air Force Western Test Range (AFWTR). Debris objects in space refer to the collection of defunct objects orbiting the Earth. Examples of debris include non-operational satellites, rocket bodies, and fragments generated from explosions, collisions, or faulty payload assembly.

Loading next visibility...
Identifier
41660, 2000-055NZ
Orbit
SSO
Country
Flag of USUS
Related business
Manufacturer
Unknown
Mission
Spacecraft
Bus & Motor
Unknown
Mass
Unknown
Launch date (UTC)
2000-09-21 (26 years ago)
Launch vehicle
Unknown
Launch site
Air Force Western Test Range (AFWTR)
Object type
Payload
Rocket body
Debris
Shape & HBR
Unknown shape, 0.1 m
Radar Cross Section
Medium (>0.1 m² and <1 m²)

Expand to show TLE details & history
Last TLE update: 4 days ago

TLE from 4 days ago
0 NOAA 16 DEB
1 41660U 00055NZ  26251.17061175  .00003906  00000-0  12384-2 0  9999
2 41660  98.7446   3.6367 0015834 253.0959 106.8493 14.40556403539422
Epoch: 2026-09-08T04:05Z
TLE epoch observation values (Epoch: 2026-09-08T04:05:40.855Z)
Latitude
0.00001°
Longitude
-45.0244°
Altitude
762.894 km
Speed
7.471 km/s
True Right ascension
00h 14m 32s
True Declination
0° 00' 00"
Sunlit
Object was in full shadow at epoch
Visualization orbit readout
Latitude
Unknown
Longitude
Unknown
Altitude
Unknown
Speed
Unknown
Apparent Right ascension
Unknown
Apparent Declination
Unknown
Sunlit
N/A
Visualization observer readout
Local Sidereal Time
13:00:18
Azimuth
Unknown
Elevation
Unknown
Doppler factor
Unknown
Orbital elements
Apogee altitude
765.086 km
Perigee altitude
742.501 km
Semi-major axis
7,131.931 km
Eccentricity
0.00158
Inclination
98.7446°
RAAN
3.6367°
Arg. of periapsis
253.0959°
True anomaly
107.02286°
Mean anomaly
106.8493°
Eccentric anomaly
106.93609°
Mean motion
3.60357 °/min
Orbital period
99.9 mins
BSTAR
0.0012384
Loading maneuver chart data...
Computing Atmospheric mass density...
Loading historical data...
Loading historical data...
Loading historical data...
Loading historical data...
Loading historical data...
Loading historical data...
Loading historical data...

Documentation

Showing up to 5 results
|